Columbus, NE

4:28 PM CDT on May 24, 2018 (GMT -0500)
Columbus Municipal

Weather History for KOLU - May, 2013

Change the Weather History Date:

Monday, May 27, 2013

  Actual Average Record
Temperature  
Mean Temperature 68 °F -  
Max Temperature 75 °F 76 °F 94 °F (1988)
Min Temperature 60 °F 55 °F 38 °F (1992)
Cooling Degree Days 2    
Growing Degree Days 18 (Base 50)    
Moisture  
Dew Point 59 °F    
Average Humidity 76    
Maximum Humidity 88    
Minimum Humidity 65    
Precipitation  
Precipitation 2.23 in - - ()
Sea Level Pressure  
Sea Level Pressure 29.78 in    
Wind  
Wind Speed 10 mph (ESE)    
Max Wind Speed 30 mph    
Max Gust Speed 50 mph    
Visibility 10 miles    
Events Thunderstorm    
Averages and records for this station are not official NWS values.
T = Trace of Precipitation, MM = Missing Value Source: NWS Daily Summary

Daily Weather History Graph

Daily Weather History Graph

Search for Another Location

Airport or City:

Astronomy

May. 27, 2013 Rise Set
Actual Time 6:00 AM CDT 8:52 PM CDT
Civil Twilight 5:27 AM CDT 9:25 PM CDT
Nautical Twilight 4:46 AM CDT 10:07 PM CDT
Astronomical Twilight 3:58 AM CDT 10:55 PM CDT
Moon 11:32 PM CDT (5/27) 8:39 AM CDT (5/27)
Length of Visible Light 15h 58m
Length of Day
14h 52m
Waning Gibbous, 91% of the Moon is Illuminated
May 27
Waning Gibbous
May 31
Last Quarter
Jun 8
New
Jun 16
First Quarter
Jun 23
Full

Hourly Weather History & Observations

Time (CDT) Temp. Dew Point Humidity Pressure Visibility Wind Dir Wind Speed Gust Speed Precip Events Conditions
12:15 AM 66.2 °F 60.8 °F 83% 29.83 in 5.0 mi ESE 4.6 mph - N/A   Overcast
12:35 AM 66.2 °F 62.6 °F 88% 29.85 in 6.0 mi East 5.8 mph - N/A   Overcast
12:55 AM 60.8 °F 55.4 °F 82% 29.93 in 3.0 mi NNW 21.9 mph 49.5 mph 0.11 in Thunderstorm Thunderstorm
1:15 AM 60.8 °F 55.4 °F 82% 29.90 in 7.0 mi North 15.0 mph - 0.53 in Thunderstorm Thunderstorm
1:35 AM 60.8 °F 55.4 °F 82% 29.90 in 9.0 mi North 16.1 mph 20.7 mph 0.88 in Thunderstorm Thunderstorm
1:55 AM 60.8 °F 55.4 °F 82% 29.89 in 10.0 mi North 15.0 mph 25.3 mph 1.05 in Thunderstorm Thunderstorm
2:15 AM 60.8 °F 57.2 °F 88% 29.86 in 10.0 mi North 18.4 mph 27.6 mph 0.04 in Thunderstorm Thunderstorm
2:35 AM 60.8 °F 55.4 °F 82% 29.85 in 10.0 mi North 6.9 mph - 0.07 in Thunderstorm Overcast
2:55 AM 60.8 °F 55.4 °F 82% 29.83 in 10.0 mi ENE 11.5 mph - 0.10 in Thunderstorm Thunderstorm
3:15 AM 62.6 °F 55.4 °F 77% 29.82 in 10.0 mi Calm Calm - 0.02 in Thunderstorm Thunderstorm
3:35 AM 62.6 °F 57.2 °F 82% 29.83 in 10.0 mi SSW 9.2 mph - 0.02 in Thunderstorm Overcast
3:55 AM 62.6 °F 57.2 °F 82% 29.84 in 10.0 mi SSE 6.9 mph - 0.02 in   Overcast
4:15 AM 60.8 °F 55.4 °F 82% 29.84 in 10.0 mi East 3.5 mph - N/A Thunderstorm Overcast
4:35 AM 60.8 °F 55.4 °F 82% 29.85 in 10.0 mi East 3.5 mph - 0.01 in Thunderstorm Overcast
4:55 AM 60.8 °F 55.4 °F 82% 29.87 in 4.0 mi Calm Calm - 0.11 in Thunderstorm Thunderstorm
5:15 AM 60.8 °F 55.4 °F 82% 29.85 in 9.0 mi Calm Calm - 0.13 in Thunderstorm Thunderstorm
5:35 AM 60.8 °F 55.4 °F 82% 29.85 in 8.0 mi SE 4.6 mph - 0.35 in Thunderstorm Thunderstorm
5:55 AM 60.8 °F 55.4 °F 82% 29.84 in 7.0 mi South 6.9 mph - 0.61 in Thunderstorm Thunderstorm
6:15 AM 60.8 °F 55.4 °F 82% 29.84 in 10.0 mi South 3.5 mph - 0.07 in Thunderstorm Thunderstorm
6:35 AM 60.8 °F 55.4 °F 82% 29.84 in 10.0 mi SSW 5.8 mph - 0.11 in Thunderstorm Mostly Cloudy
6:55 AM 60.8 °F 55.4 °F 82% 29.92 in 10.0 mi WSW 18.4 mph 24.2 mph 0.13 in Thunderstorm Thunderstorm
7:15 AM 60.8 °F 55.4 °F 82% 29.92 in 10.0 mi WSW 8.1 mph - 0.05 in Thunderstorm Thunderstorm
7:35 AM 60.8 °F 55.4 °F 82% 29.84 in 10.0 mi NNE 17.3 mph - 0.09 in Thunderstorm Thunderstorm
7:55 AM 60.8 °F 55.4 °F 82% 29.74 in 10.0 mi ENE 24.2 mph 29.9 mph 0.10 in   Overcast
8:15 AM 62.6 °F 55.4 °F 77% 29.68 in 10.0 mi NE 29.9 mph 44.9 mph N/A   Mostly Cloudy
8:35 AM 62.6 °F 55.4 °F 77% 29.75 in 10.0 mi SE 10.4 mph 20.7 mph N/A   Scattered Clouds
8:55 AM 62.6 °F 55.4 °F 77% 29.74 in 10.0 mi South 18.4 mph 26.5 mph N/A   Partly Cloudy
9:15 AM 62.6 °F 55.4 °F 77% 29.80 in 10.0 mi SW 5.8 mph - N/A   Scattered Clouds
9:35 AM 62.6 °F 55.4 °F 77% 29.79 in 10.0 mi SW 4.6 mph - N/A   Mostly Cloudy
9:55 AM 66.2 °F 57.2 °F 73% 29.79 in 10.0 mi SSW 8.1 mph - N/A   Scattered Clouds
10:15 AM 66.2 °F 59.0 °F 78% 29.79 in 10.0 mi South 9.2 mph - N/A   Mostly Cloudy
10:35 AM 66.2 °F 57.2 °F 73% 29.80 in 10.0 mi SSW 3.5 mph - N/A   Overcast
10:55 AM 66.2 °F 59.0 °F 78% 29.80 in 10.0 mi South 9.2 mph - N/A   Overcast
11:15 AM 69.8 °F 60.8 °F 73% 29.81 in 10.0 mi South 11.5 mph - N/A   Scattered Clouds
11:35 AM 69.8 °F 60.8 °F 73% 29.81 in 10.0 mi SSE 9.2 mph 16.1 mph N/A   Mostly Cloudy
11:55 AM 71.6 °F 60.8 °F 69% 29.81 in 10.0 mi SSE 10.4 mph - N/A   Mostly Cloudy
12:15 PM 71.6 °F 60.8 °F 69% 29.81 in 10.0 mi South 8.1 mph - N/A   Mostly Cloudy
12:35 PM 71.6 °F 60.8 °F 69% 29.80 in 10.0 mi SSW 8.1 mph 16.1 mph N/A   Mostly Cloudy
12:55 PM 73.4 °F 62.6 °F 69% 29.80 in 10.0 mi SSE 9.2 mph - N/A   Partly Cloudy
1:15 PM 73.4 °F 62.6 °F 69% 29.79 in 10.0 mi ESE 8.1 mph - N/A   Clear
1:35 PM 73.4 °F 62.6 °F 69% 29.79 in 10.0 mi SE 3.5 mph - N/A   Scattered Clouds
1:55 PM 75.2 °F 62.6 °F 65% 29.79 in 10.0 mi East 8.1 mph - N/A   Mostly Cloudy
2:15 PM 75.2 °F 62.6 °F 65% 29.78 in 10.0 mi ESE 6.9 mph - N/A   Mostly Cloudy
2:35 PM 75.2 °F 62.6 °F 65% 29.77 in 10.0 mi SSE 6.9 mph - N/A   Mostly Cloudy
2:55 PM 75.2 °F 62.6 °F 65% 29.77 in 10.0 mi ESE 6.9 mph - N/A   Mostly Cloudy
3:15 PM 75.2 °F 62.6 °F 65% 29.76 in 10.0 mi East 8.1 mph - N/A   Overcast
3:35 PM 75.2 °F 64.4 °F 69% 29.76 in 10.0 mi ENE 9.2 mph - N/A   Overcast
3:55 PM 75.2 °F 64.4 °F 69% 29.74 in 10.0 mi NE 11.5 mph - N/A   Mostly Cloudy
4:15 PM 75.2 °F 64.4 °F 69% 29.74 in 10.0 mi ENE 12.7 mph - N/A   Partly Cloudy
4:35 PM 75.2 °F 62.6 °F 65% 29.74 in 10.0 mi ENE 10.4 mph - N/A   Scattered Clouds
4:55 PM 75.2 °F 62.6 °F 65% 29.74 in 10.0 mi East 10.4 mph - N/A   Mostly Cloudy
5:15 PM 73.4 °F 62.6 °F 69% 29.74 in 10.0 mi East 10.4 mph - N/A   Overcast
5:35 PM 75.2 °F 62.6 °F 65% 29.73 in 10.0 mi East 12.7 mph - N/A   Overcast
5:55 PM 73.4 °F 62.6 °F 69% 29.72 in 10.0 mi East 11.5 mph - N/A   Overcast
6:15 PM 73.4 °F 62.6 °F 69% 29.71 in 10.0 mi ENE 13.8 mph - N/A   Overcast
6:35 PM 73.4 °F 62.6 °F 69% 29.71 in 10.0 mi East 11.5 mph - N/A   Scattered Clouds
6:55 PM 71.6 °F 62.6 °F 73% 29.70 in 10.0 mi ENE 12.7 mph - N/A   Clear
7:15 PM 71.6 °F 62.6 °F 73% 29.70 in 10.0 mi East 9.2 mph - N/A   Clear
7:35 PM 69.8 °F 62.6 °F 78% 29.69 in 10.0 mi East 12.7 mph - N/A   Clear
7:55 PM 69.8 °F 60.8 °F 73% 29.68 in 10.0 mi ENE 13.8 mph - N/A   Clear
8:15 PM 69.8 °F 60.8 °F 73% 29.69 in 10.0 mi East 12.7 mph - N/A   Clear
8:35 PM 69.8 °F 62.6 °F 78% 29.71 in 10.0 mi East 11.5 mph - N/A   Mostly Cloudy
8:55 PM 69.8 °F 60.8 °F 73% 29.68 in 10.0 mi East 15.0 mph - N/A   Mostly Cloudy
9:15 PM 68.0 °F 60.8 °F 78% 29.68 in 10.0 mi East 17.3 mph - N/A   Partly Cloudy
9:35 PM 68.0 °F 60.8 °F 78% 29.68 in 10.0 mi East 23.0 mph 29.9 mph N/A   Clear
9:55 PM 68.0 °F 60.8 °F 78% 29.64 in 10.0 mi East 21.9 mph 33.4 mph N/A   Partly Cloudy
10:15 PM 68.0 °F 60.8 °F 78% 29.66 in 10.0 mi ENE 18.4 mph 24.2 mph N/A   Clear
10:35 PM 68.0 °F 60.8 °F 78% 29.66 in 10.0 mi ENE 18.4 mph 23.0 mph N/A   Scattered Clouds
10:55 PM 66.2 °F 60.8 °F 83% 29.67 in 10.0 mi East 16.1 mph 31.1 mph N/A   Scattered Clouds
11:15 PM 66.2 °F 60.8 °F 83% 29.68 in 10.0 mi East 16.1 mph 19.6 mph N/A   Mostly Cloudy
11:35 PM 66.2 °F 60.8 °F 83% 29.70 in 10.0 mi East 8.1 mph - N/A   Overcast
11:55 PM 66.2 °F 60.8 °F 83% 29.70 in 10.0 mi ENE 6.9 mph - N/A   Overcast